When you browse on this site, cookies collect data to enhance your experience and personalize the content and advertising you see.
Visit our Privacy Policy to learn more. By continuing to use the site, you agree to this use of cookies and data.
  • In Austria
  • List of Countries
  • For 7 days
  • Water Temperature
  • Weather Map
  • News
  • Weather Widgets
  • user-avatar
    Login

    Hourly Weather Progreso de Obregon

    Today, 23 October, Wednesday

    Time Temperature Precipitation Wind Pressure Humidity
    00:00 +15°C° 1 mm 1 mps 604 mmHg 93%
    01:00 +15°C° 1 mm 1 mps 604 mmHg 94%
    02:00 +15°C° 1 mm 1 mps 604 mmHg 95%
    03:00 +15°C° 0.1 mm 1 mps 603 mmHg 95%
    04:00 +15°C° 0.1 mm 1 mps 603 mmHg 95%
    05:00 +15°C° 0.1 mm 1 mps 603 mmHg 95%
    06:00 +15°C° 0.1 mm 1 mps 603 mmHg 92%
    07:00 +16°C° 0.1 mm 1 mps 604 mmHg 89%
    08:00 +16°C° 0.1 mm 1 mps 604 mmHg 87%
    09:00 +17°C° 0.1 mm 2 mps 604 mmHg 81%
    10:00 +19°C° 0.1 mm 2 mps 604 mmHg 75%
    11:00 +20°C° 0.1 mm 2 mps 604 mmHg 69%
    12:00 +20°C° 0 mm 2 mps 604 mmHg 66%
    13:00 +21°C° 0 mm 3 mps 603 mmHg 63%
    14:00 +21°C° 0 mm 3 mps 603 mmHg 61%
    15:00 +20°C° 0 mm 3 mps 603 mmHg 67%
    16:00 +19°C° 0 mm 3 mps 602 mmHg 73%
    17:00 +18°C° 0 mm 3 mps 602 mmHg 79%
    18:00 +17°C° 0 mm 2 mps 602 mmHg 84%
    19:00 +16°C° 0 mm 2 mps 602 mmHg 89%
    20:00 +15°C° 0 mm 1 mps 603 mmHg 95%
    21:00 +15°C° 0 mm 1 mps 602 mmHg 95%
    22:00 +14°C° 0 mm 1 mps 602 mmHg 95%
    23:00 +13°C° 0 mm 0 mps 602 mmHg 96%

    Tomorrow, 24 October, Thursday

    Time Temperature Precipitation Wind Pressure Humidity
    00:00 +13°C° 0 mm 0 mps 601 mmHg 95%
    01:00 +13°C° 0 mm 0 mps 601 mmHg 95%
    02:00 +13°C° 0 mm 0 mps 601 mmHg 94%
    03:00 +13°C° 0 mm 0 mps 601 mmHg 94%
    04:00 +12°C° 0 mm 0 mps 601 mmHg 94%
    05:00 +12°C° 0 mm 0 mps 600 mmHg 94%
    06:00 +13°C° 0 mm 0 mps 601 mmHg 88%
    07:00 +15°C° 0 mm 0 mps 602 mmHg 83%
    08:00 +16°C° 0 mm 0 mps 603 mmHg 77%
    09:00 +20°C° 0 mm 1 mps 603 mmHg 70%
    10:00 +21°C° 0 mm 1 mps 603 mmHg 62%
    11:00 +23°C° 0 mm 2 mps 604 mmHg 55%
    12:00 +24°C° 0 mm 2 mps 603 mmHg 54%
    13:00 +24°C° 0 mm 3 mps 603 mmHg 53%
    14:00 +24°C° 0 mm 3 mps 602 mmHg 52%
    15:00 +22°C° 0.1 mm 3 mps 602 mmHg 60%
    16:00 +21°C° 0.1 mm 3 mps 601 mmHg 67%
    17:00 +19°C° 0.1 mm 3 mps 601 mmHg 75%
    18:00 +18°C° 0.8 mm 2 mps 601 mmHg 81%
    19:00 +18°C° 0.8 mm 2 mps 601 mmHg 87%
    20:00 +18°C° 0.8 mm 1 mps 601 mmHg 92%
    21:00 +16°C° 0.2 mm 1 mps 601 mmHg 93%
    22:00 +16°C° 0.2 mm 1 mps 601 mmHg 94%
    23:00 +16°C° 0.2 mm 1 mps 601 mmHg 95%

    Day after tomorrow, 25 October, Friday

    Time Temperature Precipitation Wind Pressure Humidity
    00:00 +15°C° 0.1 mm 0 mps 601 mmHg 94%
    01:00 +15°C° 0.1 mm 0 mps 601 mmHg 94%
    02:00 +14°C° 0.1 mm 0 mps 601 mmHg 94%
    03:00 +14°C° 0 mm 0 mps 601 mmHg 94%
    04:00 +15°C° 0 mm 1 mps 601 mmHg 94%
    05:00 +15°C° 0 mm 1 mps 601 mmHg 93%
    06:00 +16°C° 0 mm 1 mps 602 mmHg 89%
    07:00 +18°C° 0 mm 1 mps 603 mmHg 85%
    08:00 +18°C° 0 mm 1 mps 604 mmHg 81%
    09:00 +19°C° 0.1 mm 2 mps 604 mmHg 74%
    10:00 +20°C° 0.1 mm 3 mps 604 mmHg 68%
    11:00 +21°C° 0.1 mm 3 mps 605 mmHg 61%
    12:00 +21°C° 0.3 mm 4 mps 604 mmHg 65%
    13:00 +20°C° 0.3 mm 5 mps 603 mmHg 69%
    14:00 +20°C° 0.3 mm 5 mps 603 mmHg 73%
    15:00 +17°C° 0.1 mm 5 mps 602 mmHg 77%
    16:00 +17°C° 0.1 mm 4 mps 602 mmHg 81%
    17:00 +14°C° 0.1 mm 4 mps 602 mmHg 86%
    18:00 +14°C° 0.2 mm 3 mps 602 mmHg 86%
    19:00 +14°C° 0.2 mm 3 mps 603 mmHg 86%
    20:00 +15°C° 0.2 mm 2 mps 603 mmHg 86%
    21:00 +14°C° 0.5 mm 2 mps 603 mmHg 88%
    22:00 +14°C° 0.5 mm 2 mps 603 mmHg 90%
    23:00 +14°C° 0.5 mm 2 mps 603 mmHg 91%

    26 October, Saturday

    Time Temperature Precipitation Wind Pressure Humidity
    00:00 +14°C° 0 mm 2 mps 603 mmHg 91%
    01:00 +14°C° 0 mm 2 mps 603 mmHg 92%
    02:00 +13°C° 0 mm 2 mps 602 mmHg 92%
    03:00 +13°C° 0 mm 1 mps 602 mmHg 92%
    04:00 +13°C° 0 mm 1 mps 602 mmHg 92%
    05:00 +13°C° 0 mm 1 mps 602 mmHg 92%
    06:00 +14°C° 0 mm 1 mps 603 mmHg 88%
    07:00 +15°C° 0 mm 1 mps 603 mmHg 85%
    08:00 +15°C° 0 mm 1 mps 604 mmHg 81%
    09:00 +18°C° 0 mm 1 mps 604 mmHg 74%
    10:00 +20°C° 0 mm 1 mps 604 mmHg 68%
    11:00 +20°C° 0 mm 0 mps 604 mmHg 61%
    12:00 +22°C° 0 mm 1 mps 604 mmHg 60%
    13:00 +23°C° 0 mm 2 mps 603 mmHg 58%
    14:00 +22°C° 0 mm 3 mps 603 mmHg 57%
    15:00 +21°C° 0.3 mm 3 mps 603 mmHg 64%
    16:00 +19°C° 0.3 mm 2 mps 602 mmHg 71%
    17:00 +18°C° 0.3 mm 2 mps 602 mmHg 78%
    18:00 +17°C° 0.3 mm 2 mps 602 mmHg 81%
    19:00 +18°C° 0.3 mm 1 mps 602 mmHg 83%
    20:00 +16°C° 0.3 mm 1 mps 602 mmHg 85%
    21:00 +16°C° 0.1 mm 1 mps 602 mmHg 87%
    22:00 +16°C° 0.1 mm 1 mps 602 mmHg 88%
    23:00 +14°C° 0.1 mm 0 mps 602 mmHg 89%

    27 October, Sunday

    Time Temperature Precipitation Wind Pressure Humidity
    00:00 +14°C° 0 mm 0 mps 602 mmHg 90%
    01:00 +14°C° 0 mm 0 mps 601 mmHg 90%
    02:00 +14°C° 0 mm 0 mps 601 mmHg 90%
    03:00 +14°C° 0 mm 0 mps 601 mmHg 90%
    04:00 +13°C° 0 mm 0 mps 601 mmHg 90%
    05:00 +13°C° 0 mm 0 mps 601 mmHg 90%
    06:00 +15°C° 0 mm 0 mps 601 mmHg 84%
    07:00 +16°C° 0 mm 0 mps 602 mmHg 77%
    08:00 +18°C° 0 mm 0 mps 603 mmHg 71%
    09:00 +21°C° 0 mm 1 mps 603 mmHg 66%
    10:00 +22°C° 0 mm 1 mps 604 mmHg 60%
    11:00 +24°C° 0 mm 2 mps 604 mmHg 55%
    12:00 +24°C° 0.3 mm 2 mps 603 mmHg 54%
    13:00 +24°C° 0.3 mm 2 mps 603 mmHg 54%
    14:00 +25°C° 0.3 mm 3 mps 602 mmHg 53%
    15:00 +22°C° 0.8 mm 3 mps 602 mmHg 61%
    16:00 +21°C° 0.8 mm 2 mps 602 mmHg 69%
    17:00 +19°C° 0.8 mm 2 mps 602 mmHg 76%
    18:00 +18°C° 0.1 mm 2 mps 602 mmHg 80%
    19:00 +19°C° 0.1 mm 1 mps 602 mmHg 83%
    20:00 +18°C° 0.1 mm 1 mps 602 mmHg 86%
    21:00 +18°C° 0 mm 1 mps 602 mmHg 87%
    22:00 +16°C° 0 mm 1 mps 602 mmHg 87%
    23:00 +15°C° 0 mm 0 mps 602 mmHg 88%

    28 October, Monday

    Time Temperature Precipitation Wind Pressure Humidity
    00:00 +14°C° 0 mm 0 mps 601 mmHg 88%
    01:00 +14°C° 0 mm 0 mps 601 mmHg 87%
    02:00 +14°C° 0 mm 0 mps 601 mmHg 87%
    03:00 +13°C° 0 mm 0 mps 601 mmHg 87%
    04:00 +13°C° 0 mm 0 mps 601 mmHg 87%
    05:00 +13°C° 0 mm 0 mps 601 mmHg 87%
    06:00 +15°C° 0 mm 0 mps 602 mmHg 79%
    07:00 +16°C° 0 mm 0 mps 603 mmHg 72%
    08:00 +18°C° 0 mm 0 mps 604 mmHg 64%
    09:00 +20°C° 0 mm 2 mps 605 mmHg 58%
    10:00 +22°C° 0 mm 3 mps 605 mmHg 52%
    11:00 +23°C° 0 mm 4 mps 605 mmHg 46%
    12:00 +22°C° 0 mm 5 mps 605 mmHg 50%
    13:00 +22°C° 0 mm 6 mps 604 mmHg 53%
    14:00 +21°C° 0 mm 6 mps 603 mmHg 57%
    15:00 +20°C° 0 mm 6 mps 603 mmHg 64%
    16:00 +17°C° 0 mm 5 mps 603 mmHg 72%
    17:00 +15°C° 0 mm 4 mps 603 mmHg 79%
    18:00 +15°C° 0 mm 4 mps 603 mmHg 80%
    19:00 +14°C° 0 mm 3 mps 604 mmHg 80%
    20:00 +14°C° 0 mm 3 mps 604 mmHg 81%
    21:00 +14°C° 0 mm 3 mps 604 mmHg 82%
    22:00 +15°C° 0 mm 2 mps 604 mmHg 83%
    23:00 +14°C° 0 mm 2 mps 604 mmHg 84%

    29 October, Tuesday

    Time Temperature Precipitation Wind Pressure Humidity
    00:00 +14°C° 0 mm 2 mps 604 mmHg 85%
    01:00 +14°C° 0 mm 2 mps 604 mmHg 85%
    02:00 +14°C° 0 mm 2 mps 604 mmHg 86%
    03:00 +14°C° 0 mm 2 mps 604 mmHg 87%
    04:00 +14°C° 0 mm 2 mps 604 mmHg 87%
    05:00 +14°C° 0 mm 1 mps 604 mmHg 88%
    06:00 +14°C° 0 mm 2 mps 604 mmHg 86%
    07:00 +14°C° 0 mm 2 mps 604 mmHg 83%
    08:00 +14°C° 0 mm 2 mps 605 mmHg 80%
    09:00 +15°C° 0 mm 2 mps 605 mmHg 78%
    10:00 +16°C° 0 mm 2 mps 605 mmHg 75%
    11:00 +16°C° 0 mm 2 mps 605 mmHg 72%
    12:00 +17°C° 0 mm 2 mps 605 mmHg 69%
    13:00 +18°C° 0 mm 2 mps 604 mmHg 67%
    14:00 +19°C° 0 mm 2 mps 604 mmHg 64%
    15:00 +17°C° 0 mm 2 mps 603 mmHg 70%
    16:00 +16°C° 0 mm 3 mps 603 mmHg 76%
    17:00 +14°C° 0 mm 3 mps 603 mmHg 82%
    18:00 +15°C° 0 mm 2 mps 603 mmHg 84%
    19:00 +14°C° 0 mm 2 mps 604 mmHg 85%
    20:00 +14°C° 0 mm 2 mps 604 mmHg 87%
    21:00 +14°C° 0 mm 1 mps 604 mmHg 85%
    22:00 +13°C° 0 mm 1 mps 604 mmHg 84%
    23:00 +13°C° 0 mm 1 mps 604 mmHg 83%
    Show more